Time,TemperatureF,DewpointF,PressureIn,WindDirection,WindDirectionDegrees,WindSpeedMPH,WindSpeedGustMPH,Humidity,HourlyPrecipIn,Conditions,Clouds,dailyrainin,SolarRadiationWatts/m^2,SoftwareType,DateUTC
2013-03-16 00:02:00,59.0,28.0,-100.00,ESE,109,0.0,5.0,31,0.00,,,0.00,0.000000,,2013-03-16 07:02:00,
2013-03-16 00:11:00,59.0,28.0,-100.00,ESE,109,0.0,5.0,31,0.00,,,0.00,0.000000,,2013-03-16 07:11:00,
2013-03-16 00:42:00,59.0,25.0,-100.00,NE,48,0.0,3.0,27,0.00,,,0.00,0.000000,,2013-03-16 07:42:00,
2013-03-16 00:52:00,59.0,25.0,-100.00,NE,48,0.0,3.0,27,0.00,,,0.00,0.000000,,2013-03-16 07:52:00,
2013-03-16 01:02:00,59.0,25.0,-100.00,NE,48,0.0,3.0,27,0.00,,,0.00,0.000000,,2013-03-16 08:02:00,
2013-03-16 01:12:00,59.0,25.0,-100.00,NE,48,0.0,3.0,27,0.00,,,0.00,0.000000,,2013-03-16 08:12:00,
2013-03-16 01:42:00,59.0,25.0,-100.00,WSW,249,0.0,4.0,27,0.00,,,0.00,0.000000,,2013-03-16 08:42:00,
2013-03-16 01:52:00,59.0,25.0,-100.00,WSW,249,0.0,4.0,27,0.00,,,0.00,0.000000,,2013-03-16 08:52:00,
2013-03-16 02:42:00,57.0,27.0,-100.00,WSW,256,0.0,5.0,31,0.00,,,0.00,0.000000,,2013-03-16 09:42:00,
2013-03-16 02:53:00,57.0,27.0,-100.00,WSW,256,0.0,5.0,31,0.00,,,0.00,0.000000,,2013-03-16 09:53:00,
2013-03-16 03:03:00,57.0,27.0,-100.00,WSW,256,0.0,5.0,31,0.00,,,0.00,0.000000,,2013-03-16 10:03:00,
2013-03-16 03:12:00,57.0,27.0,-100.00,WSW,256,0.0,5.0,31,0.00,,,0.00,0.000000,,2013-03-16 10:12:00,
2013-03-16 03:42:00,57.0,27.0,-100.00,WNW,293,7.0,12.0,31,0.00,,,0.00,0.000000,,2013-03-16 10:42:00,
2013-03-16 03:53:00,57.0,27.0,-100.00,WNW,293,7.0,12.0,31,0.00,,,0.00,0.000000,,2013-03-16 10:53:00,
2013-03-16 04:03:00,57.0,27.0,-100.00,WNW,293,7.0,12.0,31,0.00,,,0.00,0.000000,,2013-03-16 11:03:00,
2013-03-16 04:12:00,57.0,27.0,-100.00,WNW,293,7.0,12.0,31,0.00,,,0.00,0.000000,,2013-03-16 11:12:00,
2013-03-16 04:43:00,57.0,27.0,-100.00,SE,132,0.0,13.0,32,0.00,,,0.00,0.000000,,2013-03-16 11:43:00,
2013-03-16 04:52:00,57.0,27.0,-100.00,SE,132,0.0,13.0,32,0.00,,,0.00,0.000000,,2013-03-16 11:52:00,
2013-03-16 05:02:00,57.0,27.0,-100.00,SE,132,0.0,13.0,32,0.00,,,0.00,0.000000,,2013-03-16 12:02:00,
2013-03-16 05:12:00,57.0,27.0,-100.00,SE,132,0.0,13.0,32,0.00,,,0.00,0.000000,,2013-03-16 12:12:00,
2013-03-16 05:43:00,56.0,27.0,-100.00,West,275,0.0,7.0,33,0.00,,,0.00,0.000000,,2013-03-16 12:43:00,
2013-03-16 05:52:00,56.0,27.0,-100.00,West,275,0.0,7.0,33,0.00,,,0.00,0.000000,,2013-03-16 12:52:00,
2013-03-16 06:02:00,56.0,27.0,-100.00,West,275,0.0,7.0,33,0.00,,,0.00,0.000000,,2013-03-16 13:02:00,
2013-03-16 06:12:00,56.0,27.0,-100.00,West,275,0.0,7.0,33,0.00,,,0.00,0.000000,,2013-03-16 13:12:00,
2013-03-16 06:42:00,53.0,25.0,-100.00,WNW,293,3.0,7.0,34,0.00,,,0.00,0.000000,,2013-03-16 13:42:00,
2013-03-16 06:53:00,53.0,25.0,-100.00,WNW,293,3.0,7.0,34,0.00,,,0.00,0.000000,,2013-03-16 13:53:00,
2013-03-16 07:02:00,53.0,25.0,-100.00,WNW,293,3.0,7.0,34,0.00,,,0.00,0.000000,,2013-03-16 14:02:00,
2013-03-16 07:11:00,53.0,25.0,-100.00,WNW,293,3.0,7.0,34,0.00,,,0.00,0.000000,,2013-03-16 14:11:00,
2013-03-16 07:42:00,54.0,26.0,-100.00,West,281,2.0,8.0,34,0.00,,,0.00,2.000000,,2013-03-16 14:42:00,
2013-03-16 07:52:00,54.0,26.0,-100.00,West,281,2.0,8.0,34,0.00,,,0.00,2.000000,,2013-03-16 14:52:00,
2013-03-16 08:02:00,54.0,26.0,-100.00,West,281,2.0,8.0,34,0.00,,,0.00,2.000000,,2013-03-16 15:02:00,
2013-03-16 08:12:00,54.0,26.0,-100.00,West,281,2.0,8.0,34,0.00,,,0.00,2.000000,,2013-03-16 15:12:00,
2013-03-16 08:43:00,59.0,30.0,-100.00,SSE,147,2.0,11.0,33,0.00,,,0.00,154.000000,,2013-03-16 15:43:00,
2013-03-16 08:53:00,59.0,30.0,-100.00,SSE,147,2.0,11.0,33,0.00,,,0.00,154.000000,,2013-03-16 15:53:00,
2013-03-16 09:02:00,59.0,30.0,-100.00,SSE,147,2.0,11.0,33,0.00,,,0.00,154.000000,,2013-03-16 16:02:00,
2013-03-16 09:12:00,59.0,30.0,-100.00,SSE,147,2.0,11.0,33,0.00,,,0.00,154.000000,,2013-03-16 16:12:00,
2013-03-16 09:43:00,65.0,32.0,-100.00,SW,214,0.0,11.0,29,0.00,,,0.00,383.000000,,2013-03-16 16:43:00,
2013-03-16 09:53:00,65.0,32.0,-100.00,SW,214,0.0,11.0,29,0.00,,,0.00,383.000000,,2013-03-16 16:53:00,
2013-03-16 10:02:00,65.0,32.0,-100.00,SW,214,0.0,11.0,29,0.00,,,0.00,383.000000,,2013-03-16 17:02:00,
2013-03-16 10:12:00,65.0,32.0,-100.00,SW,214,0.0,11.0,29,0.00,,,0.00,383.000000,,2013-03-16 17:12:00,
2013-03-16 10:43:00,69.0,24.0,-100.00,West,267,10.0,17.0,18,0.00,,,0.00,637.000000,,2013-03-16 17:43:00,
2013-03-16 10:53:00,69.0,24.0,-100.00,West,267,10.0,17.0,18,0.00,,,0.00,637.000000,,2013-03-16 17:53:00,
2013-03-16 11:43:00,70.0,23.0,-100.00,West,263,14.0,23.0,17,0.00,,,0.00,841.000000,,2013-03-16 18:43:00,
2013-03-16 11:53:00,70.0,23.0,-100.00,West,263,14.0,23.0,17,0.00,,,0.00,841.000000,,2013-03-16 18:53:00,
2013-03-16 12:42:00,73.0,34.0,-100.00,WSW,258,11.0,23.0,24,0.00,,,0.00,1063.000000,,2013-03-16 19:42:00,
2013-03-16 12:52:00,73.0,34.0,-100.00,WSW,258,11.0,23.0,24,0.00,,,0.00,1063.000000,,2013-03-16 19:52:00,
2013-03-16 13:02:00,73.0,34.0,-100.00,WSW,258,11.0,23.0,24,0.00,,,0.00,1063.000000,,2013-03-16 20:02:00,
2013-03-16 13:12:00,73.0,34.0,-100.00,WSW,258,11.0,23.0,24,0.00,,,0.00,1063.000000,,2013-03-16 20:12:00,
2013-03-16 13:42:00,77.0,32.0,-100.00,West,264,8.0,19.0,19,0.00,,,0.00,1117.000000,,2013-03-16 20:42:00,
2013-03-16 13:52:00,77.0,32.0,-100.00,West,264,8.0,19.0,19,0.00,,,0.00,1117.000000,,2013-03-16 20:52:00,
2013-03-16 14:02:00,77.0,32.0,-100.00,West,264,8.0,19.0,19,0.00,,,0.00,1117.000000,,2013-03-16 21:02:00,
2013-03-16 14:11:00,77.0,32.0,-100.00,West,264,8.0,19.0,19,0.00,,,0.00,1117.000000,,2013-03-16 21:11:00,
2013-03-16 14:43:00,79.0,33.0,-100.00,SW,228,9.0,19.0,19,0.00,,,0.00,1079.000000,,2013-03-16 21:43:00,
2013-03-16 14:52:00,79.0,33.0,-100.00,SW,228,9.0,19.0,19,0.00,,,0.00,1079.000000,,2013-03-16 21:52:00,
2013-03-16 15:03:00,79.0,33.0,-100.00,SW,228,9.0,19.0,19,0.00,,,0.00,1079.000000,,2013-03-16 22:03:00,
2013-03-16 15:12:00,79.0,33.0,-100.00,SW,228,9.0,19.0,19,0.00,,,0.00,1079.000000,,2013-03-16 22:12:00,
2013-03-16 15:42:00,80.0,35.0,-100.00,WSW,248,8.0,20.0,20,0.00,,,0.00,964.000000,,2013-03-16 22:42:00,
2013-03-16 15:52:00,80.0,35.0,-100.00,WSW,248,8.0,20.0,20,0.00,,,0.00,964.000000,,2013-03-16 22:52:00,
2013-03-16 16:02:00,80.0,35.0,-100.00,WSW,248,8.0,20.0,20,0.00,,,0.00,964.000000,,2013-03-16 23:02:00,
2013-03-16 16:12:00,80.0,35.0,-100.00,WSW,248,8.0,20.0,20,0.00,,,0.00,964.000000,,2013-03-16 23:12:00,
2013-03-16 16:42:00,77.0,38.0,-100.00,WSW,243,10.0,20.0,25,0.00,,,0.00,771.000000,,2013-03-16 23:42:00,
2013-03-16 16:52:00,77.0,38.0,-100.00,WSW,243,10.0,20.0,25,0.00,,,0.00,771.000000,,2013-03-16 23:52:00,
2013-03-16 17:01:00,77.0,38.0,-100.00,WSW,243,10.0,20.0,25,0.00,,,0.00,771.000000,,2013-03-17 00:01:00,
2013-03-16 17:12:00,77.0,38.0,-100.00,WSW,243,10.0,20.0,25,0.00,,,0.00,771.000000,,2013-03-17 00:12:00,
2013-03-16 17:43:00,74.0,39.0,-100.00,SW,228,12.0,19.0,28,0.00,,,0.00,518.000000,,2013-03-17 00:43:00,
2013-03-16 17:52:00,74.0,39.0,-100.00,SW,228,12.0,19.0,28,0.00,,,0.00,518.000000,,2013-03-17 00:52:00,
2013-03-16 18:02:00,74.0,39.0,-100.00,SW,228,12.0,19.0,28,0.00,,,0.00,518.000000,,2013-03-17 01:02:00,
2013-03-16 18:12:00,74.0,39.0,-100.00,SW,228,12.0,19.0,28,0.00,,,0.00,518.000000,,2013-03-17 01:12:00,
2013-03-16 18:42:00,68.0,43.0,-100.00,SW,234,10.0,19.0,40,0.00,,,0.00,211.000000,,2013-03-17 01:42:00,
2013-03-16 18:53:00,68.0,43.0,-100.00,SW,234,10.0,19.0,40,0.00,,,0.00,211.000000,,2013-03-17 01:53:00,
2013-03-16 19:02:00,68.0,43.0,-100.00,SW,234,10.0,19.0,40,0.00,,,0.00,211.000000,,2013-03-17 02:02:00,
2013-03-16 19:12:00,68.0,43.0,-100.00,SW,234,10.0,19.0,40,0.00,,,0.00,211.000000,,2013-03-17 02:12:00,
2013-03-16 19:43:00,61.0,44.0,-100.00,West,261,3.0,13.0,53,0.00,,,0.00,23.000000,,2013-03-17 02:43:00,
2013-03-16 19:52:00,61.0,44.0,-100.00,West,261,3.0,13.0,53,0.00,,,0.00,23.000000,,2013-03-17 02:52:00,
2013-03-16 20:02:00,61.0,44.0,-100.00,West,261,3.0,13.0,53,0.00,,,0.00,23.000000,,2013-03-17 03:02:00,
2013-03-16 20:11:00,61.0,44.0,-100.00,West,261,3.0,13.0,53,0.00,,,0.00,23.000000,,2013-03-17 03:11:00,
2013-03-16 20:43:00,60.0,44.0,-100.00,West,275,4.0,13.0,55,0.00,,,0.00,0.000000,,2013-03-17 03:43:00,
2013-03-16 20:53:00,60.0,44.0,-100.00,West,275,4.0,13.0,55,0.00,,,0.00,0.000000,,2013-03-17 03:53:00,
2013-03-16 21:02:00,60.0,44.0,-100.00,West,275,4.0,13.0,55,0.00,,,0.00,0.000000,,2013-03-17 04:02:00,
2013-03-16 21:12:00,60.0,44.0,-100.00,West,275,4.0,13.0,55,0.00,,,0.00,0.000000,,2013-03-17 04:12:00,
2013-03-16 21:43:00,55.0,47.0,-100.00,ESE,114,0.0,11.0,73,0.00,,,0.00,0.000000,,2013-03-17 04:43:00,
2013-03-16 21:53:00,55.0,47.0,-100.00,ESE,114,0.0,11.0,73,0.00,,,0.00,0.000000,,2013-03-17 04:53:00,
2013-03-16 22:02:00,55.0,47.0,-100.00,ESE,114,0.0,11.0,73,0.00,,,0.00,0.000000,,2013-03-17 05:02:00,
2013-03-16 22:12:00,55.0,47.0,-100.00,ESE,114,0.0,11.0,73,0.00,,,0.00,0.000000,,2013-03-17 05:12:00,
2013-03-16 22:42:00,54.0,47.0,-100.00,WNW,299,8.0,12.0,77,0.00,,,0.00,0.000000,,2013-03-17 05:42:00,
2013-03-16 22:52:00,54.0,47.0,-100.00,WNW,299,8.0,12.0,77,0.00,,,0.00,0.000000,,2013-03-17 05:52:00,
2013-03-16 23:02:00,54.0,47.0,-100.00,WNW,299,8.0,12.0,77,0.00,,,0.00,0.000000,,2013-03-17 06:02:00,
2013-03-16 23:12:00,54.0,47.0,-100.00,WNW,299,8.0,12.0,77,0.00,,,0.00,0.000000,,2013-03-17 06:12:00,
2013-03-16 23:42:00,51.0,47.0,-100.00,West,260,3.0,14.0,86,0.00,,,0.00,0.000000,,2013-03-17 06:42:00,
2013-03-16 23:52:00,51.0,47.0,-100.00,West,260,3.0,14.0,86,0.00,,,0.00,0.000000,,2013-03-17 06:52:00,